DateTimeUTC,F1_A11,F1_S11,BsB_S11,BsG_S11,BsR_S11,BbsB_S11,BbsG_S11,BbsR_S11,BaB_A11,BaG_A11,BaR_A11,Tu_S11,T_S11,Uu_S11,U_S11,P_S11,T1_A11
2021-07-05T12:00:00Z,00000200,20000000,,,,,,,-000.14,0000.10,-000.07,19.3,25.7,08.4,05.7,0664.4,31.2
2021-07-05T12:01:00Z,00000200,20000000,,,,,,,0000.18,0000.25,0000.07,19.3,25.7,08.4,05.7,0664.4,31.2
2021-07-05T12:02:00Z,00000200,20000000,,,,,,,-000.05,0000.24,0000.03,19.3,25.8,08.5,05.7,0664.4,31.2
2021-07-05T12:03:00Z,00000200,60000000,,,,,,,0000.02,-000.39,0000.08,19.3,25.8,08.5,05.7,0664.4,31.2
2021-07-05T12:04:00Z,00000200,40000000,0000.50,0000.58,0000.40,-000.32,-000.04,0000.05,-000.18,0000.16,0000.11,19.4,25.6,08.6,05.9,0665.3,31.2
2021-07-05T12:05:00Z,00000200,00000000,-000.05,0000.30,0000.33,0000.22,0000.18,-000.05,0000.36,-000.08,-000.25,19.5,25.6,08.5,05.8,0665.4,31.2
2021-07-05T12:06:00Z,00000200,00000000,0000.35,0000.31,0000.43,-000.08,0000.08,-000.04,0000.25,0000.21,0000.44,19.5,25.6,08.6,05.9,0665.4,31.2
2021-07-05T12:07:00Z,00000200,00000000,0000.67,0000.36,0000.29,-000.42,-000.19,-000.18,-000.25,0000.45,-000.24,19.5,25.6,08.7,06.0,0665.4,31.2
2021-07-05T12:08:00Z,00000200,00000000,0000.22,0000.54,0000.18,0000.25,0000.20,-000.26,0000.20,-000.05,0000.23,19.5,25.6,08.5,05.9,0665.4,31.2
2021-07-05T12:09:00Z,00000200,00000000,-000.23,0000.42,-000.04,-000.16,0000.10,-000.20,0000.22,-000.09,0000.20,19.5,25.6,08.6,06.0,0665.4,31.2
2021-07-05T12:10:00Z,00000200,00000000,0000.79,0000.39,0000.20,0000.13,0000.29,0000.29,-000.36,-000.02,-000.36,19.5,25.6,08.5,05.9,0665.4,31.2
2021-07-05T12:11:00Z,00000200,00000000,-000.10,0000.55,0000.33,-000.13,0000.15,-000.02,0000.16,0000.04,0000.35,19.6,25.6,08.4,05.8,0665.4,31.2
2021-07-05T12:12:00Z,00000200,00000000,0000.05,0000.08,0000.70,0000.12,-000.00,0000.23,0000.34,0000.05,-000.02,19.6,25.6,08.4,05.8,0665.4,31.2
2021-07-05T12:13:00Z,00000200,00000000,0000.52,0000.38,0000.15,0000.44,0000.23,-000.21,-000.10,-000.08,0000.09,19.6,25.6,08.5,05.8,0665.4,31.2
2021-07-05T12:14:00Z,00000200,00000000,0000.02,0000.19,0000.28,0000.57,0000.26,0000.11,-000.12,0000.24,0000.03,19.6,25.6,08.5,05.8,0665.4,31.2
2021-07-05T12:15:00Z,00000200,00000000,0000.13,0000.27,0000.33,-000.01,0000.28,0000.20,0000.43,0000.17,-000.07,19.6,25.6,08.5,05.9,0665.4,31.2
2021-07-05T12:16:00Z,00000200,00000000,-000.08,0000.06,-000.00,0000.22,0000.08,-000.39,0000.14,0000.06,0000.11,19.6,25.6,08.5,05.8,0665.4,31.2
2021-07-05T12:17:00Z,00000200,00000000,0000.74,0000.23,0000.15,0000.41,0000.27,0000.24,-000.06,0000.60,0000.14,19.6,25.6,08.7,06.0,0665.4,31.2
2021-07-05T12:18:00Z,00000200,00000000,0000.15,0000.61,0000.48,0000.14,0000.14,0000.16,0000.02,-000.09,0000.35,19.6,25.7,08.6,05.9,0665.4,31.2
2021-07-05T12:19:00Z,00000200,00000000,0000.51,0000.37,0000.03,0000.78,0000.34,-000.11,0000.12,-000.35,-000.16,19.6,25.7,08.4,05.8,0665.4,31.2
2021-07-05T12:20:00Z,00000200,00000000,0000.32,0000.36,0000.42,-000.03,-000.05,-000.12,0000.16,0000.15,-000.03,19.6,25.7,08.5,05.9,0665.4,31.2
2021-07-05T12:21:00Z,00000200,00000000,0000.31,0000.55,0000.57,0000.54,0000.04,0000.08,0000.38,0000.18,0000.16,19.6,25.7,08.5,05.9,0665.4,31.2
2021-07-05T12:22:00Z,00000200,00000000,-000.49,0000.47,0000.34,0000.29,0000.09,-000.26,-000.16,-000.14,0000.04,19.6,25.7,08.5,05.9,0665.4,31.2
2021-07-05T12:23:00Z,00000200,00000000,-000.20,0000.19,0000.23,0000.41,0000.35,0000.27,0000.17,-000.13,-000.08,19.6,25.7,08.5,05.9,0665.4,31.2
2021-07-05T12:24:00Z,00000200,00000000,0000.35,0000.20,-000.02,0000.26,-000.03,-000.39,0000.03,0000.43,0000.09,19.7,25.7,08.3,05.8,0665.4,31.2
2021-07-05T12:25:00Z,00000200,00000000,0000.48,0000.36,0000.17,0000.21,0000.42,-000.21,-000.09,0000.34,0000.17,19.7,25.7,08.4,05.8,0665.4,31.2
2021-07-05T12:26:00Z,00000200,00000000,0000.80,0000.72,0000.03,-000.12,0000.17,-000.04,0000.18,-000.18,-000.23,19.7,25.7,08.5,05.9,0665.3,31.2
2021-07-05T12:27:00Z,00000200,00000000,0000.19,0000.49,-000.12,0000.38,0000.11,-000.22,0000.28,0000.15,0000.48,19.7,25.7,08.2,05.7,0665.4,31.2
2021-07-05T12:28:00Z,00000200,00000000,-000.03,0000.33,-000.10,0000.04,0000.14,-000.19,-000.03,0000.30,0000.08,19.7,25.7,08.3,05.7,0665.4,31.2
2021-07-05T12:29:00Z,00000200,00000000,0000.41,0000.60,0000.29,-000.02,0000.23,-000.18,-000.14,-000.42,-000.20,19.7,25.7,08.4,05.8,0665.4,31.2
2021-07-05T12:30:00Z,00000200,00000000,0000.29,0000.22,-000.02,0000.07,0000.48,-000.29,0000.32,0000.13,0000.15,19.7,25.8,08.3,05.8,0665.4,31.2
2021-07-05T12:31:00Z,00000200,00000000,0000.04,0000.45,0000.34,-000.48,0000.21,-000.16,-000.08,0000.29,-000.05,19.7,25.8,08.3,05.8,0665.4,31.2
2021-07-05T12:32:00Z,00000200,00000000,-000.31,0000.41,0000.37,0000.22,-000.06,-000.44,0000.10,0000.08,0000.23,19.7,25.8,08.5,05.9,0665.3,31.2
2021-07-05T12:33:00Z,00000200,00000000,0000.31,0000.31,0000.44,0000.03,0000.30,-000.12,-000.10,0000.01,-000.30,19.7,25.8,08.4,05.8,0665.3,31.2
2021-07-05T12:34:00Z,00000200,00000000,-000.17,0000.22,0000.44,0000.46,0000.01,0000.22,0000.17,0000.09,0000.24,19.8,25.8,08.4,05.8,0665.3,31.2
2021-07-05T12:35:00Z,00000200,00000000,0001.43,0000.26,0000.45,-000.06,0000.23,0000.03,0000.24,0000.23,0000.20,19.8,25.8,08.3,05.7,0665.3,31.2
2021-07-05T12:36:00Z,00000200,00000000,0000.29,0000.51,-000.19,0000.49,0000.34,-000.37,0000.20,0000.26,0000.12,19.8,25.8,08.5,05.9,0665.3,31.2
2021-07-05T12:37:00Z,00000200,00000000,0000.40,0000.39,0000.04,-000.10,0000.35,-000.14,0000.26,0000.16,0000.05,19.8,25.8,08.4,05.9,0665.3,31.2
2021-07-05T12:38:00Z,00000200,00000000,-000.10,0000.37,0000.24,-000.06,0000.29,-000.05,-000.37,-000.19,-000.09,19.8,25.8,08.4,05.9,0665.3,31.2
2021-07-05T12:39:00Z,00000200,00000000,0000.13,0000.56,0000.12,0000.17,0000.33,-000.31,0000.15,-000.15,0000.13,19.8,25.8,08.3,05.7,0665.3,31.2
2021-07-05T12:40:00Z,00000200,00000000,0000.56,0000.55,0000.42,-000.23,-000.05,0000.28,-000.08,-000.04,-000.24,19.8,25.8,08.2,05.7,0665.3,31.2
2021-07-05T12:41:00Z,00000200,00000000,0000.67,0000.42,0000.10,-000.00,0000.02,-000.11,0000.34,0000.10,0000.63,19.8,25.9,08.2,05.7,0665.3,31.2
2021-07-05T12:42:00Z,00000200,00000000,0000.60,0000.51,-000.10,-000.00,-000.03,-000.05,-000.11,0000.19,-000.50,19.8,25.9,08.2,05.7,0665.3,31.2
2021-07-05T12:43:00Z,00000200,00000000,0000.63,0000.70,-000.08,0000.04,0000.06,0000.09,0000.19,0000.22,0000.29,19.9,25.9,08.4,05.8,0665.4,31.2
2021-07-05T12:44:00Z,00000200,00000000,0000.21,0000.41,-000.08,0000.57,0000.09,-000.18,-000.07,-000.04,-000.15,19.9,25.9,08.3,05.8,0665.4,31.2
2021-07-05T12:45:00Z,00000200,00000000,0000.47,0000.29,0000.32,0000.43,0000.25,-000.01,0000.20,0000.52,0000.07,19.9,25.9,08.2,05.7,0665.4,31.2
2021-07-05T12:46:00Z,00000200,00000000,0000.07,0000.01,0000.43,0000.87,0000.15,-000.27,0000.18,-000.64,0000.28,19.9,25.9,08.1,05.7,0665.4,31.2
2021-07-05T12:47:00Z,00000200,00000000,0000.30,0000.36,0000.56,-000.34,0000.13,-000.11,-000.00,0000.31,0000.04,19.9,25.9,08.1,05.7,0665.4,31.2
2021-07-05T12:48:00Z,00000200,00000000,0000.42,0000.28,0000.18,0000.15,0000.14,-000.09,-000.03,-000.02,0000.18,19.9,25.9,08.3,05.8,0665.4,31.2
2021-07-05T12:49:00Z,00000200,00000000,-000.10,0000.50,-000.23,0000.44,0000.02,-000.22,0000.16,0000.34,0000.08,19.9,25.9,08.2,05.7,0665.4,31.2
2021-07-05T12:50:00Z,00000200,00000000,-000.49,0000.31,-000.01,-000.24,0000.08,-000.21,0000.20,0000.18,0000.18,20.0,25.9,08.3,05.8,0665.4,31.2
2021-07-05T12:51:00Z,00000200,00000000,0000.64,0000.54,0000.45,-000.07,0000.38,0000.20,0000.20,-000.19,0000.01,20.0,25.9,08.4,05.8,0665.4,31.2
2021-07-05T12:52:00Z,00000200,00000000,0000.12,0000.29,0000.38,-000.10,0000.52,-000.07,-000.24,-000.24,-000.23,20.0,25.9,08.2,05.7,0665.4,31.2
2021-07-05T12:53:00Z,00000200,00000000,0000.25,0000.27,0000.35,0000.45,0000.17,-000.09,0000.27,0000.74,-000.15,20.0,26.0,08.3,05.8,0665.4,31.2
2021-07-05T12:54:00Z,00000200,00000000,0000.25,0000.32,0000.35,-000.25,0000.25,-000.02,-000.04,-000.57,0000.44,20.0,26.0,08.1,05.6,0665.4,31.2
2021-07-05T12:55:00Z,00000200,00000000,0000.97,0000.36,-000.00,0000.04,0000.07,0000.14,-000.07,-000.08,-000.12,20.0,26.0,08.0,05.6,0665.4,31.2
2021-07-05T12:56:00Z,00000200,00000000,0000.07,0000.69,0000.48,0000.29,0000.02,-000.16,0000.06,0000.18,0000.12,20.0,26.0,08.0,05.6,0665.3,31.3
2021-07-05T12:57:00Z,00000200,40000000,,,,,,,-000.01,0000.34,-000.08,20.1,26.0,08.1,05.7,0665.3,31.3
2021-07-05T12:58:00Z,00000200,60000000,,,,,,,0000.19,-000.11,0000.05,19.9,26.1,08.1,05.5,0664.4,31.2
2021-07-05T12:59:00Z,00000200,20000000,,,,,,,-000.10,0000.13,-000.05,19.9,26.2,08.1,05.5,0664.4,31.2
